Hourly Weather Roundup
Issued by NWS Central Illinois

Home | Current Version | Previous Version | Text Only | Print | Product List | Glossary On
Versions: 1 2 3 4 5 6 7 8 9 10 11 12 13 14 15 16 17 18 19 20 21 22 23 24 25 26 27 28 29 30 31 32 33 34 35 36 37 38 39 40 41 42 43 44 45 46 47 48 49 50
693
NZUS43 KILX 252110
HWRILX

Area Weather Roundup
National Weather Service Lincoln IL
400 PM CDT THU MAY 25 2017

NOTE:  "FAIR" indicates few or no clouds below 12,000 feet, with
       no sigificant weather and/or obstructions to visibility.


CITY           SKY/WX    TMP DP  RH WIND       PRES   REMARKS
Bloomington    PTSUNNY   63  55  75 N8        29.71S
Champaign      PTSUNNY   65  55  70 NW15      29.70R
Danville       CLOUDY    64  55  73 NW9       29.65S
Decatur        PTSUNNY   70  55  59 W9        29.69F
Effingham      PTSUNNY   73  58  57 W10       29.71S
Flora          MOSUNNY   74  55  51 W9        29.70F
Galesburg      MOSUNNY   73  53  50 SW6       29.67S
Jacksonville   PTSUNNY   70  53  55 S7        29.69F
Lacon          MOSUNNY   64  56  74 NW6       29.70S
Lawrenceville  PTSUNNY   72  58  61 NW15      29.69S
Litchfield     MOSUNNY   70  53  54 SW7       29.71S
$$


CITY           SKY/WX    TMP DP  RH WIND       PRES   REMARKS
Lincoln        MOSUNNY   71  60  67 N5        29.69S
Macomb         MOSUNNY   70  54  55 SW7       29.71S
Mattoon        MOSUNNY   68  59  73 N8        29.69F
Mt Carmel AP   PTSUNNY   73  56  56 W12       29.70R
Olney-Noble AP PTSUNNY   71  58  62 NW8       29.70S
Paris AP       CLOUDY    66  57  73 NW13      29.70S
Peoria         MOSUNNY   72  58  61 N6        29.68F
Pontiac        CLOUDY    64  58  81 NW9       29.70S
Rantoul        CLOUDY    65  57  75 NW12G20   29.69S
Robinson       PTSUNNY   67  58  72 NW12      29.70S
Springfield    MOSUNNY   72  56  57 W8        29.69F
Taylorville    MOSUNNY   71  55  57 W9        29.70S
$$

...REGIONAL REPORTS...


CITY           SKY/WX    TMP DP  RH WIND       PRES   REMARKS
Chicago O`Hare CLOUDY    68  52  56 N9        29.64S
Kankakee       PTSUNNY   68  55  62 CALM      29.67R
Moline         MOSUNNY   71  51  49 SE3       29.66
Mount Sterling PTSUNNY   70  54  56 SW7       29.69F
Mount Vernon     N/A     74  54  49 SW9       29.72S
Pittsfield     MOSUNNY   70  54  55 SW3       29.71S
Quincy         MOSUNNY   72  52  49 SW3       29.69F
Rockford       MOSUNNY   70  54  56 VRB7      29.68F
$$


CITY           SKY/WX    TMP DP  RH WIND       PRES   REMARKS
Burlington     SUNNY     71  54  54 S8        29.68S
Cedar Rapids   SUNNY     69  52  54 SE5       29.66F
Des Moines     MOSUNNY   73  49  42 SE9       29.63F
Kirksville     SUNNY     72  52  49 S6        29.68F
Ottumwa        SUNNY     71  49  45 S6        29.66F
St Louis       MOSUNNY   77  52  41 W13       29.70F
$$


CITY           SKY/WX    TMP DP  RH WIND       PRES   REMARKS
Terre Haute    CLOUDY    65  54  67 NW9       29.68S
Evansville     PTSUNNY   75  55  49 W12       29.71R
Indianapolis   CLOUDY    62  55  77 NW13      29.64R
Lafayette      CLOUDY    62  57  83 W14       29.64R
Madison        PTSUNNY   69  54  58 NE10      29.66F
Milwaukee      MOSUNNY   61  51  70 NE16G22   29.66S
$$






USA.gov is the U.S. government's official web portal to all federal, state and local government web resources and services.